• In Hungary
  • List of Countries
  • For 7 days
  • Water Temperature
  • Satellite Maps
  • Weather Map
  • News
  • Weather Widgets
  • user-avatar
    Login

    Hourly Weather Severobaykalsk

    Today, 11 December, Monday

    Time Temperature Precipitation Wind Pressure Humidity
    00:00 -27°C° 0 mm 2 mps 731 mmHg 65%
    01:00 -27°C° 0 mm 2 mps 731 mmHg 64%
    02:00 -27°C° 0 mm 2 mps 731 mmHg 64%
    03:00 -27°C° 0 mm 2 mps 731 mmHg 64%
    04:00 -26°C° 0 mm 2 mps 731 mmHg 64%
    05:00 -26°C° 0 mm 2 mps 731 mmHg 65%
    06:00 -23°C° 0 mm 1 mps 731 mmHg 65%
    07:00 -27°C° 0 mm 2 mps 731 mmHg 67%
    08:00 -26°C° 0 mm 2 mps 731 mmHg 67%
    09:00 -25°C° 0 mm 2 mps 730 mmHg 66%
    10:00 -20°C° 0 mm 1 mps 730 mmHg 66%
    11:00 -20°C° 0 mm 1 mps 730 mmHg 68%
    12:00 -19°C° 0 mm 1 mps 729 mmHg 69%
    13:00 -18°C° 0 mm 1 mps 729 mmHg 73%
    14:00 -19°C° 0 mm 1 mps 729 mmHg 73%
    15:00 -20°C° 0 mm 1 mps 729 mmHg 74%
    16:00 -21°C° 0 mm 1 mps 729 mmHg 74%
    17:00 -21°C° 0 mm 1 mps 729 mmHg 73%
    18:00 -21°C° 0 mm 1 mps 729 mmHg 72%
    19:00 -24°C° 0 mm 2 mps 729 mmHg 67%
    20:00 -24°C° 0 mm 2 mps 729 mmHg 65%
    21:00 -24°C° 0 mm 2 mps 729 mmHg 63%
    22:00 -21°C° 0 mm 1 mps 728 mmHg 62%
    23:00 -20°C° 0 mm 1 mps 728 mmHg 62%

    Tomorrow, 12 December, Tuesday

    Time Temperature Precipitation Wind Pressure Humidity
    00:00 -20°C° 0 mm 1 mps 728 mmHg 62%
    01:00 -20°C° 0 mm 1 mps 728 mmHg 62%
    02:00 -20°C° 0 mm 1 mps 727 mmHg 63%
    03:00 -20°C° 0 mm 1 mps 727 mmHg 63%
    04:00 -20°C° 0 mm 1 mps 727 mmHg 63%
    05:00 -19°C° 0 mm 1 mps 727 mmHg 64%
    06:00 -19°C° 0 mm 1 mps 727 mmHg 64%
    07:00 -19°C° 0 mm 1 mps 726 mmHg 64%
    08:00 -18°C° 0 mm 1 mps 726 mmHg 66%
    09:00 -17°C° 0 mm 1 mps 726 mmHg 67%
    10:00 -16°C° 0 mm 1 mps 726 mmHg 68%
    11:00 -15°C° 0 mm 1 mps 726 mmHg 70%
    12:00 -15°C° 0 mm 1 mps 725 mmHg 72%
    13:00 -14°C° 0 mm 1 mps 725 mmHg 74%
    14:00 -15°C° 0 mm 1 mps 725 mmHg 75%
    15:00 -16°C° 0 mm 1 mps 725 mmHg 76%
    16:00 -17°C° 0 mm 1 mps 725 mmHg 76%
    17:00 -17°C° 0 mm 1 mps 725 mmHg 76%
    18:00 -17°C° 0 mm 1 mps 724 mmHg 76%
    19:00 -17°C° 0 mm 1 mps 724 mmHg 76%
    20:00 -17°C° 0 mm 1 mps 724 mmHg 75%
    21:00 -17°C° 0 mm 1 mps 724 mmHg 75%
    22:00 -16°C° 0 mm 1 mps 724 mmHg 75%
    23:00 -16°C° 0 mm 1 mps 724 mmHg 74%

    Day after tomorrow, 13 December, Wednesday

    Time Temperature Precipitation Wind Pressure Humidity
    00:00 -16°C° 0 mm 1 mps 724 mmHg 74%
    01:00 -16°C° 0 mm 1 mps 724 mmHg 73%
    02:00 -16°C° 0 mm 1 mps 724 mmHg 73%
    03:00 -16°C° 0 mm 1 mps 724 mmHg 72%
    04:00 -16°C° 0 mm 1 mps 724 mmHg 72%
    05:00 -16°C° 0 mm 1 mps 724 mmHg 72%
    06:00 -16°C° 0 mm 1 mps 724 mmHg 71%
    07:00 -16°C° 0 mm 1 mps 724 mmHg 71%
    08:00 -15°C° 0 mm 1 mps 724 mmHg 72%
    09:00 -14°C° 0 mm 1 mps 724 mmHg 73%
    10:00 -14°C° 0 mm 1 mps 724 mmHg 74%
    11:00 -13°C° 0 mm 1 mps 724 mmHg 76%
    12:00 -13°C° 0 mm 1 mps 724 mmHg 79%
    13:00 -12°C° 0 mm 1 mps 724 mmHg 82%
    14:00 -14°C° 0 mm 1 mps 724 mmHg 85%
    15:00 -15°C° 0 mm 1 mps 724 mmHg 88%
    16:00 -16°C° 0 mm 1 mps 725 mmHg 91%
    17:00 -16°C° 0 mm 1 mps 725 mmHg 91%
    18:00 -16°C° 0 mm 1 mps 725 mmHg 91%
    19:00 -16°C° 0 mm 1 mps 725 mmHg 90%
    20:00 -16°C° 0 mm 1 mps 726 mmHg 90%
    21:00 -16°C° 0 mm 1 mps 726 mmHg 90%
    22:00 -16°C° 0 mm 1 mps 726 mmHg 90%
    23:00 -16°C° 0.1 mm 1 mps 726 mmHg 91%

    14 December, Thursday

    Time Temperature Precipitation Wind Pressure Humidity
    00:00 -16°C° 0.1 mm 1 mps 726 mmHg 91%
    01:00 -16°C° 0.1 mm 1 mps 726 mmHg 91%
    02:00 -18°C° 0.1 mm 2 mps 726 mmHg 91%
    03:00 -18°C° 0.1 mm 2 mps 726 mmHg 91%
    04:00 -18°C° 0.1 mm 2 mps 726 mmHg 91%
    05:00 -19°C° 0 mm 2 mps 726 mmHg 90%
    06:00 -19°C° 0 mm 2 mps 726 mmHg 90%
    07:00 -19°C° 0 mm 2 mps 726 mmHg 89%
    08:00 -19°C° 0 mm 2 mps 726 mmHg 89%
    09:00 -19°C° 0 mm 2 mps 727 mmHg 89%
    10:00 -18°C° 0 mm 2 mps 727 mmHg 88%
    11:00 -18°C° 0 mm 2 mps 727 mmHg 88%
    12:00 -18°C° 0 mm 2 mps 726 mmHg 89%
    13:00 -18°C° 0 mm 2 mps 726 mmHg 89%
    14:00 -19°C° 0 mm 2 mps 727 mmHg 90%
    15:00 -20°C° 0 mm 2 mps 727 mmHg 91%
    16:00 -23°C° 0 mm 2 mps 727 mmHg 92%
    17:00 -23°C° 0 mm 2 mps 727 mmHg 91%
    18:00 -23°C° 0 mm 2 mps 728 mmHg 91%
    19:00 -24°C° 0 mm 2 mps 728 mmHg 91%
    20:00 -24°C° 0 mm 2 mps 728 mmHg 91%
    21:00 -24°C° 0 mm 2 mps 728 mmHg 91%
    22:00 -25°C° 0 mm 2 mps 728 mmHg 92%
    23:00 -25°C° 0 mm 2 mps 728 mmHg 91%

    15 December, Friday

    Time Temperature Precipitation Wind Pressure Humidity
    00:00 -25°C° 0 mm 2 mps 728 mmHg 91%
    01:00 -26°C° 0 mm 2 mps 728 mmHg 91%
    02:00 -26°C° 0 mm 2 mps 728 mmHg 90%
    03:00 -26°C° 0 mm 2 mps 728 mmHg 90%
    04:00 -26°C° 0 mm 2 mps 728 mmHg 90%
    05:00 -26°C° 0 mm 2 mps 729 mmHg 89%
    06:00 -26°C° 0 mm 2 mps 729 mmHg 89%
    07:00 -27°C° 0 mm 2 mps 729 mmHg 89%
    08:00 -26°C° 0 mm 2 mps 729 mmHg 88%
    09:00 -25°C° 0 mm 2 mps 729 mmHg 87%
    10:00 -25°C° 0 mm 2 mps 729 mmHg 86%
    11:00 -24°C° 0 mm 2 mps 729 mmHg 86%
    12:00 -23°C° 0 mm 2 mps 729 mmHg 86%
    13:00 -20°C° 0 mm 1 mps 728 mmHg 87%
    14:00 -20°C° 0 mm 1 mps 729 mmHg 88%
    15:00 -24°C° 0 mm 2 mps 729 mmHg 90%
    16:00 -25°C° 0 mm 2 mps 729 mmHg 91%
    17:00 -24°C° 0 mm 2 mps 729 mmHg 91%
    18:00 -24°C° 0 mm 2 mps 729 mmHg 91%
    19:00 -24°C° 0 mm 2 mps 729 mmHg 91%
    20:00 -24°C° 0 mm 2 mps 729 mmHg 91%
    21:00 -24°C° 0 mm 2 mps 728 mmHg 91%
    22:00 -24°C° 0 mm 2 mps 728 mmHg 91%
    23:00 -23°C° 0.1 mm 2 mps 728 mmHg 91%

    16 December, Saturday

    Time Temperature Precipitation Wind Pressure Humidity
    00:00 -23°C° 0.1 mm 2 mps 727 mmHg 92%
    01:00 -21°C° 0.1 mm 2 mps 727 mmHg 92%
    02:00 -20°C° 0.1 mm 2 mps 726 mmHg 93%
    03:00 -20°C° 0.1 mm 2 mps 725 mmHg 94%
    04:00 -19°C° 0.1 mm 2 mps 724 mmHg 94%
    05:00 -19°C° 0.2 mm 2 mps 724 mmHg 94%
    06:00 -19°C° 0.2 mm 3 mps 723 mmHg 94%
    07:00 -19°C° 0.2 mm 3 mps 722 mmHg 94%
    08:00 -18°C° 0.2 mm 3 mps 722 mmHg 94%
    09:00 -17°C° 0.2 mm 3 mps 722 mmHg 93%
    10:00 -17°C° 0.2 mm 3 mps 721 mmHg 93%
    11:00 -16°C° 0.1 mm 3 mps 721 mmHg 92%
    12:00 -16°C° 0.1 mm 3 mps 721 mmHg 92%
    13:00 -16°C° 0.1 mm 3 mps 720 mmHg 91%
    14:00 -16°C° 0.1 mm 3 mps 720 mmHg 91%
    15:00 -16°C° 0.1 mm 2 mps 721 mmHg 92%
    16:00 -17°C° 0.1 mm 2 mps 721 mmHg 92%
    17:00 -17°C° 0.1 mm 2 mps 721 mmHg 92%
    18:00 -17°C° 0.1 mm 2 mps 721 mmHg 92%
    19:00 -17°C° 0.1 mm 2 mps 721 mmHg 91%
    20:00 -18°C° 0 mm 2 mps 721 mmHg 92%
    21:00 -18°C° 0 mm 2 mps 721 mmHg 92%
    22:00 -18°C° 0 mm 2 mps 721 mmHg 92%
    23:00 -18°C° 0 mm 2 mps 721 mmHg 92%
    Show more